When you browse on this site, cookies collect data to enhance your experience and personalize the content and advertising you see.
Visit our Privacy Policy to learn more. By continuing to use the site, you agree to this use of cookies and data.
  • In Hungary
  • List of Countries
  • For 7 days
  • Water Temperature
  • Satellite Maps
  • Weather Map
  • News
  • Weather Widgets
  • user-avatar
    Login

    Hourly Weather Potichok

    Today, 17 July, Wednesday

    Time Temperature Precipitation Wind Pressure Humidity
    00:00 +17°C° 0.1 mm 3 mps 734 mmHg 95%
    01:00 +19°C° 0 mm 1 mps 734 mmHg 84%
    02:00 +16°C° 0.2 mm 2 mps 734 mmHg 99%
    03:00 +16°C° 0 mm 2 mps 734 mmHg 98%
    04:00 +16°C° 0 mm 2 mps 734 mmHg 99%
    05:00 +16°C° 0 mm 2 mps 734 mmHg 98%
    06:00 +16°C° 0 mm 3 mps 734 mmHg 98%
    07:00 +17°C° 0 mm 4 mps 735 mmHg 94%
    08:00 +16°C° 0 mm 5 mps 735 mmHg 94%
    09:00 +17°C° 0 mm 4 mps 735 mmHg 94%
    10:00 +18°C° 0 mm 4 mps 736 mmHg 90%
    11:00 +18°C° 0 mm 4 mps 735 mmHg 88%
    12:00 +19°C° 0 mm 3 mps 736 mmHg 84%
    13:00 +20°C° 0 mm 3 mps 735 mmHg 81%
    14:00 +21°C° 0 mm 3 mps 735 mmHg 79%
    15:00 +21°C° 0 mm 2 mps 735 mmHg 80%
    16:00 +22°C° 0 mm 1 mps 734 mmHg 72%
    17:00 +21°C° 0 mm 2 mps 734 mmHg 77%
    18:00 +21°C° 0 mm 2 mps 734 mmHg 79%
    19:00 +20°C° 0.3 mm 2 mps 734 mmHg 89%
    20:00 +19°C° 0 mm 2 mps 734 mmHg 96%
    21:00 +19°C° 0 mm 1 mps 735 mmHg 98%
    22:00 +18°C° 0 mm 2 mps 735 mmHg 97%
    23:00 +17°C° 0 mm 2 mps 735 mmHg 96%

    Tomorrow, 18 July, Thursday

    Time Temperature Precipitation Wind Pressure Humidity
    00:00 +16°C° 0 mm 2 mps 735 mmHg 96%
    01:00 +16°C° 0 mm 2 mps 735 mmHg 97%
    02:00 +15°C° 0 mm 2 mps 735 mmHg 98%
    03:00 +15°C° 0 mm 2 mps 735 mmHg 99%
    04:00 +13°C° 0 mm 3 mps 735 mmHg 99%
    05:00 +13°C° 0 mm 3 mps 736 mmHg 98%
    06:00 +13°C° 0 mm 3 mps 735 mmHg 98%
    07:00 +16°C° 0 mm 3 mps 736 mmHg 97%
    08:00 +17°C° 0 mm 4 mps 736 mmHg 94%
    09:00 +17°C° 0 mm 4 mps 737 mmHg 93%
    10:00 +18°C° 0 mm 4 mps 737 mmHg 93%
    11:00 +19°C° 0 mm 4 mps 737 mmHg 90%
    12:00 +19°C° 0 mm 4 mps 737 mmHg 86%
    13:00 +20°C° 0 mm 4 mps 738 mmHg 83%
    14:00 +20°C° 0 mm 4 mps 737 mmHg 82%
    15:00 +21°C° 0 mm 4 mps 737 mmHg 80%
    16:00 +21°C° 0 mm 3 mps 737 mmHg 73%
    17:00 +21°C° 0 mm 2 mps 737 mmHg 79%
    18:00 +21°C° 0 mm 2 mps 737 mmHg 78%
    19:00 +21°C° 0 mm 1 mps 737 mmHg 84%
    20:00 +21°C° 0 mm 1 mps 738 mmHg 87%
    21:00 +20°C° 0 mm 1 mps 738 mmHg 81%
    22:00 +20°C° 0 mm 1 mps 738 mmHg 80%
    23:00 +17°C° 0 mm 0 mps 739 mmHg 81%

    Day after tomorrow, 19 July, Friday

    Time Temperature Precipitation Wind Pressure Humidity
    00:00 +17°C° 0 mm 0 mps 739 mmHg 83%
    01:00 +17°C° 0 mm 0 mps 739 mmHg 84%
    02:00 +18°C° 0 mm 1 mps 739 mmHg 87%
    03:00 +18°C° 0 mm 1 mps 738 mmHg 91%
    04:00 +16°C° 0 mm 1 mps 738 mmHg 94%
    05:00 +16°C° 0 mm 1 mps 739 mmHg 95%
    06:00 +16°C° 0 mm 1 mps 738 mmHg 98%
    07:00 +17°C° 0 mm 2 mps 739 mmHg 97%
    08:00 +19°C° 0 mm 3 mps 739 mmHg 95%
    09:00 +20°C° 0 mm 4 mps 739 mmHg 94%
    10:00 +21°C° 0 mm 4 mps 740 mmHg 93%
    11:00 +22°C° 0 mm 3 mps 739 mmHg 93%
    12:00 +22°C° 0 mm 3 mps 739 mmHg 91%
    13:00 +24°C° 0 mm 3 mps 739 mmHg 89%
    14:00 +23°C° 0 mm 4 mps 738 mmHg 86%

    20 July, Saturday

    Time Temperature Precipitation Wind Pressure Humidity

    21 July, Sunday

    Time Temperature Precipitation Wind Pressure Humidity

    22 July, Monday

    Time Temperature Precipitation Wind Pressure Humidity
    Show more